CW7054 Weather Reports


Display with metric or nautical units.
time (UTC)temp
F
wind
direction
speed
MPH
gust
MPH
rain 1hr
in
rain 24hr
in
rain mn
in
humidity
%
barometer
mb
20260502123015 52 183 0.0 3.0 0.00 0.00 0.00 86 1011.8
20260502121513 51 182 0.0 4.0 0.00 0.00 0.00 86 1011.9
20260502114507 51 261 0.0 4.0 0.00 0.00 0.00 87 1012.1
20260502113006 50 180 0.0 3.0 0.00 0.00 0.00 88 1011.8
20260502111503 50 200 0.0 3.0 0.00 0.00 0.00 88 1011.7
20260502110001 49 202 0.0 4.0 0.00 0.00 0.00 88 1011.7
20260502104559 49 165 0.0 6.0 0.00 0.00 0.00 89 1011.4
20260502103059 49 202 0.0 3.0 0.00 0.00 0.00 89 1011.5
20260502101604 49 175 0.0 6.0 0.00 0.00 0.00 89 1011.6
20260502100105 49 179 0.0 7.0 0.00 0.00 0.00 89 1011.6
20260502080105 49 221 0.0 5.0 0.00 0.00 0.00 88 1011.5
20260502070100 49 172 0.0 8.0 0.00 0.00 0.00 87 1011.5
20260502064549 49 174 0.0 6.0 0.00 0.00 0.00 86 1011.8
20260502063041 49 186 0.0 7.0 0.00 0.00 0.00 85 1011.9
20260502061541 49 178 0.0 6.0 0.00 0.00 0.00 85 1012.0
20260502060040 49 163 0.0 7.0 0.00 0.00 0.00 85 1011.9
20260502054538 49 177 0.0 6.0 0.00 0.00 0.00 85 1011.9
20260502053038 49 174 0.0 3.0 0.00 0.00 0.00 85 1012.1
20260502051537 50 178 0.0 4.0 0.00 0.00 0.00 86 1012.1
20260502050041 49 181 0.0 4.0 0.00 0.00 0.00 85 1012.1
20260502044531 50 166 0.0 6.0 0.00 0.00 0.00 85 1012.3
20260502043034 50 215 0.0 5.0 0.00 0.00 0.00 84 1012.3
20260502041628 50 171 0.0 5.0 0.00 0.00 0.00 84 1012.5
20260502040024 50 156 0.0 6.0 0.00 0.00 0.00 83 1012.3
20260502034524 50 186 1.0 7.0 0.00 0.00 0.00 83 1012.3
20260502033026 50 198 0.0 8.0 0.00 0.00 0.00 83 1012.5
20260502031523 50 182 0.0 5.0 0.00 0.00 0.00 83 1012.7
20260502030023 50 167 2.0 8.0 0.00 0.00 0.00 82 1012.7
20260502024526 50 155 2.0 7.0 0.00 0.00 0.00 82 1012.6
20260502023020 50 199 0.0 6.0 0.00 0.00 0.00 83 1012.4
20260502021518 50 263 0.0 6.0 0.00 0.00 0.00 83 1012.4
20260502020016 50 200 0.0 3.0 0.00 0.00 0.00 83 1012.3
20260502014514 50 240 0.0 5.0 0.00 0.00 0.00 82 1012.1
20260502013016 50 190 0.0 3.0 0.00 0.00 0.00 82 1012.1
20260502011514 50 172 0.0 3.0 0.00 0.00 0.00 81 1012.1
20260502010021 50 188 0.0 4.0 0.00 0.00 0.00 81 1012.1
20260502004515 50 271 1.0 6.0 0.00 0.00 0.00 80 1012.1
20260502003012 50 183 0.0 7.0 0.00 0.00 0.00 79 1011.9
20260502001512 51 227 1.0 5.0 0.00 0.00 0.00 78 1011.7
20260502000016 51 190 1.0 7.0 0.00 0.00 0.00 76 1011.4
20260501234510 51 266 2.0 8.0 0.00 0.00 0.00 74 1011.3
20260501233013 52 178 2.0 8.0 0.00 0.00 0.00 72 1011.1
20260501231510 52 194 1.0 7.0 0.00 0.00 0.00 71 1011.0
20260501230009 53 264 3.0 9.0 0.00 0.00 0.00 69 1011.1
20260501224508 54 206 2.0 10.0 0.00 0.00 0.00 67 1011.0
20260501223008 54 153 2.0 8.0 0.00 0.00 0.00 68 1010.8
20260501221511 55 240 1.0 8.0 0.00 0.00 0.00 68 1010.9
20260501220012 55 170 1.0 10.0 0.00 0.00 0.00 69 1010.9
20260501214507 56 186 2.0 8.0 0.00 0.00 0.00 68 1010.9
20260501213008 57 254 1.0 10.0 0.00 0.00 0.00 65 1010.7
20260501211507 58 229 1.0 8.0 0.00 0.00 0.00 64 1010.6
20260501210005 59 184 3.0 7.0 0.00 0.00 0.00 60 1010.3
20260501204508 58 188 0.0 7.0 0.00 0.00 0.00 60 1010.3
20260501203005 58 174 1.0 6.0 0.00 0.00 0.00 65 1010.3
20260501201505 59 192 2.0 10.0 0.00 0.00 0.00 63 1010.5
20260501200005 59 182 2.0 8.0 0.00 0.00 0.00 59 1010.5
20260501194510 59 165 3.0 11.0 0.00 0.00 0.00 57 1010.6
20260501193003 59 164 1.0 8.0 0.00 0.00 0.00 61 1010.7
20260501191503 59 189 2.0 11.0 0.00 0.00 0.00 63 1010.9
20260501190003 59 178 2.0 9.0 0.00 0.00 0.00 63 1010.9
20260501184501 58 167 1.0 11.0 0.00 0.00 0.00 64 1011.0
20260501183001 59 190 4.0 9.0 0.00 0.00 0.00 62 1011.0
20260501181628 59 173 2.0 10.0 0.00 0.00 0.00 61 1011.1
20260501180058 60 186 1.0 9.0 0.00 0.00 0.00 58 1011.0
20260501174558 60 315 4.0 11.0 0.00 0.00 0.00 48 1011.1
20260501173109 59 340 4.0 9.0 0.00 0.00 0.00 46 1011.0
20260501171550 58 42 2.0 8.0 0.00 0.00 0.00 49 1011.1
20260501170047 58 9 1.0 8.0 0.00 0.00 0.00 54 1011.3
20260501164549 57 299 3.0 11.0 0.00 0.00 0.00 54 1011.4
20260501163043 57 338 2.0 10.0 0.00 0.00 0.00 55 1011.6
20260501161541 56 282 5.0 12.0 0.00 0.00 0.00 60 1011.8
20260501160040 56 269 3.0 10.0 0.00 0.00 0.00 59 1011.9
20260501154538 56 264 4.0 14.0 0.00 0.00 0.00 59 1011.9
20260501153059 55 275 3.0 9.0 0.00 0.00 0.00 61 1011.9
20260501151538 54 345 2.0 11.0 0.00 0.00 0.00 63 1011.8
20260501150029 54 342 1.0 9.0 0.00 0.00 0.00 65 1011.7
20260501144533 54 320 2.0 10.0 0.00 0.00 0.00 64 1011.7
20260501143026 53 30 2.0 12.0 0.00 0.00 0.00 65 1011.7
20260501141531 53 330 3.0 8.0 0.00 0.00 0.00 65 1011.7
20260501140022 53 355 2.0 12.0 0.00 0.00 0.00 66 1011.7
20260501134532 52 314 4.0 10.0 0.00 0.00 0.00 66 1011.6